Location: Cuguron
(43.0994°N, 0.5363°E)
Time: 21:59:16
(UTC+00:00)

BREEZE-M DEB (TANK) - Pass Details

Date: 15 May 2026
Orbit: 261 x 12016 km, 49.5° (Epoch: 10 June)

Event Time Altitude Azimuth Distance (km) Brightness Sun altitude
Rises 21:18:22 0° 275° (W) 3,159 6.9 -18.3°
Reaches altitude 10° 21:21:47 10° 292° (WNW) 1,519 5.5 -18.7°
Maximum altitude 21:24:02 20° 346° (NNW) 779 3.9 -18.9°
Enters shadow 21:25:15 13° 32° (NNE) 933 3.7 -19.1°
